sat.trackr.live / text

‹ back to catalog

STARLINK-4599

NORAD 53631 · 2022-104AV

PAYLOAD ACTIVE UNKNOWN

§ Identity

Operator
Country
US
Launch date
2022-08-28
Launch site
AFETR
Launch vehicle
Mass (kg)
RCS (m²)

Purposes: comms

External: N2YO · Heavens-Above · Gunter

§ Orbital elements

Epoch: 2026-05-25T00:15:30.807936Z

Period
95.44 min
Inclination
53.2125°
Eccentricity
0.0001571
Mean motion
15.08832140 rev/d
Perigee alt
538.7 km
Apogee alt
540.9 km
Semi-major
6,917.9 km
B*
1.7713e-4
RAAN
251.0231°
Arg perigee
94.9593°
Mean anomaly
265.1578°
Rev number
20,728

§ Raw data

STARLINK-45991 53631U 22104AV  26145.01077324  .00002532  00000+0  17713-3 0  99922 53631  53.2125 251.0231 0001571  94.9593 265.1578 15.08832140207280

JSON: /api/v1/satellites/53631 · /tle

For live sub-satellite position, see the globe view (requires WebGL).

§ Visibility from observer

Set your observer location to see the next 7 days of passes ≥ 10°. The values pass through the URL so the page stays shareable.

No JS? Fill the form by hand. The geolocation button needs JavaScript.